Regional Weather Roundup
Issued by NWS Sioux Falls, SD

Home | Current Version | Previous Version | Text Only | Print | Product List | Glossary On
Versions: 1 2 3 4 5 6 7 8 9 10 11 12 13 14 15 16 17 18 19 20 21 22 23 24 25 26 27 28 29 30 31 32 33 34 35 36 37 38 39 40 41 42 43 44 45 46 47 48 49 50
000
ASUS43 KFSD 270310
RWRFSD

WEATHER ROUNDUP FOR SE SOUTH DAKOTA/SW MINNESOTA/NW IOWA
NATIONAL WEATHER SERVICE SIOUX FALLS SD
1000 PM CDT WED JUL 26 2017

NOTE: "FAIR" INDICATES FEW OR NO CLOUDS BELOW 12,000 FEET WITH NO
SIGNIFICANT WEATHER AND OR OBSTRUCTIONS TO VISIBILITY.


SDZ038>040-050-052>070-270400-
SOUTHEAST SOUTH DAKOTA

CITY           SKY/WX    TMP DP  RH WIND       PRES   REMARKS
BROOKINGS      CLEAR     69  62  78 CALM      30.09R
CHAMBERLAIN    CLEAR     75  62  64 E3        30.10S
HURON          CLEAR     71  60  68 CALM      30.08R
MADISON        FAIR      66  66 100 N7        30.09S
MITCHELL       CLEAR     73  65  75 CALM      30.08R
SIOUX FALLS    PTCLDY    68  62  81 N3        30.07R
WINNER         FAIR      73  59  61 SE7       30.12R
YANKTON        CLEAR     73  63  70 N9        30.07R
$$

MNZ071-072-080-081-089-090-097-098-270400-
SOUTHWEST MINNESOTA

CITY           SKY/WX    TMP DP  RH WIND       PRES   REMARKS
FAIRMONT       CLEAR     67  63  87 N5        30.04R
JACKSON        CLEAR     64  61  88 CALM      30.07R
LUVERNE        CLEAR     68  59  73 CALM      30.08R
MARSHALL       CLEAR     71  63  75 NW5       30.07R
MONTEVIDEO     CLEAR     68  57  68 N3        30.06R
PIPESTONE      CLEAR     70  63  78 NE3       30.09R
REDWOOD FALLS  CLEAR     73  60  63 NW7       30.04R
TRACY          CLEAR     69  65  86 NW6       30.07R
WINDOM         CLEAR     66  63  88 CALM      30.06R
WORTHINGTON    CLEAR     66  62  87 N3        30.08R
$$

IAZ001>003-012>014-020>022-031-032-NEZ013-014-SDZ071-270400-
NORTHWEST IOWA

CITY           SKY/WX    TMP DP  RH WIND       PRES   REMARKS
CHEROKEE       CLEAR     74  67  78 N8        30.04R
DENISON        CLEAR     73  72  94 N3        30.03R
ESTHERVILLE    CLEAR     66  64  93 N6        30.04R
ORANGE CITY    CLEAR     72  64  78 N6        30.06R
SHELDON        PTCLDY    66  63  88 N3        30.05R
SIOUX CITY     CLEAR     78  69  73 NE9       30.02R
SPENCER        CLEAR     71  63  75 N7        30.05R
STORM LAKE     CLOUDY    73  70  88 N6        30.03R
$$

ABBREVIATIONS USED IN REMARKS
   TC - TEMPERATURE IN CELSIUS
  WCI - WIND CHILL INDEX
   HX - HEAT INDEX
  VSB - VISIBILITY




USA.gov is the U.S. government's official web portal to all federal, state and local government web resources and services.